Llano, TX

5:57 PM CDT on July 26, 2016 (GMT -0500)
Llano

Weather History for KAQO - December, 2012

Change the Weather History Date:

Tuesday, December 4, 2012

  Actual Average (KBMQ) Record (KBMQ)
Temperature  
Mean Temperature 60 °F -  
Max Temperature 75 °F 60 °F 78 °F (1998)
Min Temperature 44 °F 41 °F 25 °F (2006)
Degree Days  
Heating Degree Days 4    
Growing Degree Days 10 (Base 50)    
Moisture  
Dew Point 46 °F    
Average Humidity 63    
Maximum Humidity 100    
Minimum Humidity 31    
Precipitation  
Precipitation 0.00 in - - ()
Sea Level Pressure  
Sea Level Pressure 30.20 in    
Wind  
Wind Speed 3 mph (North)    
Max Wind Speed 13 mph    
Max Gust Speed 18 mph    
Visibility 8 miles    
Events      
Averages and records for this station are not official NWS values.
T = Trace of Precipitation, MM = Missing Value Source: NWS Daily Summary

Daily Weather History Graph

Daily Weather History Graph

Search for Another Location

Airport or City:

Trip Planner

Search our weather history database for the weather conditions in past years. The results will help you decide how hot, cold, wet, or windy it might be!

Date:

Astronomy

Dec. 04, 2012 Rise Set
Actual Time 7:17 AM CST 5:32 PM CST
Civil Twilight 6:51 AM CST 5:59 PM CST
Nautical Twilight 6:21 AM CST 6:28 PM CST
Astronomical Twilight 5:51 AM CST 6:58 PM CST
Moon 11:06 PM CST (12/4) 11:25 AM CST (12/4)
Length of Visible Light 11h 08m
Length of Day
10h 15m
Waning Gibbous, 69% of the Moon is Illuminated
Dec 4
Waning Gibbous
Dec 6
Last Quarter
Dec 13
New
Dec 19
First Quarter
Dec 28
Full

Hourly Weather History & Observations

Time (CST) Temp. Dew Point Humidity Pressure Visibility Wind Dir Wind Speed Gust Speed Precip Events Conditions
12:15 AM 57.2 °F 55.4 °F 94% 30.06 in 7.0 mi Calm Calm - N/A   Clear
12:35 AM 57.2 °F 55.4 °F 94% 30.06 in 8.0 mi Calm Calm - N/A   Clear
12:55 AM 55.4 °F 55.4 °F 100% 30.07 in 7.0 mi Calm Calm - N/A   Clear
1:15 AM 55.4 °F 55.4 °F 100% 30.07 in 4.0 mi Calm Calm - N/A   Clear
1:35 AM 57.2 °F 55.4 °F 94% 30.07 in 4.0 mi Calm Calm - N/A   Clear
1:55 AM 55.4 °F 55.4 °F 100% 30.07 in 4.0 mi Calm Calm - N/A   Clear
2:15 AM 55.4 °F 55.4 °F 100% 30.07 in 1.0 mi Calm Calm - N/A   Clear
2:55 AM 57.2 °F 55.4 °F 94% 30.09 in 5.0 mi Calm Calm - N/A   Clear
3:15 AM 57.2 °F 55.4 °F 94% 30.08 in 5.0 mi Calm Calm - N/A   Clear
3:35 AM 55.4 °F 55.4 °F 100% 30.08 in 4.0 mi Calm Calm - N/A   Clear
3:55 AM 55.4 °F 55.4 °F 100% 30.09 in 0.8 mi Calm Calm - N/A   Unknown
4:15 AM 55.4 °F 55.4 °F 100% 30.09 in 4.0 mi Calm Calm - N/A   Scattered Clouds
4:35 AM 57.2 °F 55.4 °F 94% 30.10 in 5.0 mi Calm Calm - N/A   Overcast
4:55 AM 57.2 °F 57.2 °F 100% 30.10 in 5.0 mi Calm Calm - N/A   Overcast
5:15 AM 57.2 °F 57.2 °F 100% 30.10 in 5.0 mi Calm Calm - N/A   Overcast
5:35 AM 57.2 °F 57.2 °F 100% 30.11 in 6.0 mi SW 3.5 mph - N/A   Overcast
5:55 AM 57.2 °F 55.4 °F 94% 30.12 in 6.0 mi Calm Calm - N/A   Mostly Cloudy
6:15 AM 57.2 °F 55.4 °F 94% 30.13 in 5.0 mi Calm Calm - N/A   Mostly Cloudy
6:35 AM 57.2 °F 55.4 °F 94% 30.13 in 5.0 mi Calm Calm - N/A   Overcast
6:55 AM 57.2 °F 57.2 °F 100% 30.15 in 5.0 mi North 4.6 mph - N/A   Overcast
7:15 AM 59.0 °F 57.2 °F 94% 30.16 in 8.0 mi NNW 9.2 mph - N/A   Overcast
7:35 AM 59.0 °F 53.6 °F 82% 30.18 in 10.0 mi NNW 8.1 mph - N/A   Overcast
7:55 AM 57.2 °F 48.2 °F 72% 30.19 in 10.0 mi North 9.2 mph - N/A   Mostly Cloudy
8:15 AM 57.2 °F 44.6 °F 63% 30.21 in 10.0 mi North 10.4 mph - N/A   Overcast
8:35 AM 59.0 °F 42.8 °F 55% 30.22 in 10.0 mi North 10.4 mph - N/A   Overcast
8:55 AM 59.0 °F 42.8 °F 55% 30.23 in 10.0 mi North 9.2 mph - N/A   Mostly Cloudy
9:15 AM 59.0 °F 42.8 °F 55% 30.24 in 10.0 mi North 8.1 mph - N/A   Mostly Cloudy
9:35 AM 60.8 °F 42.8 °F 52% 30.25 in 10.0 mi North 8.1 mph - N/A   Overcast
9:55 AM 60.8 °F 42.8 °F 52% 30.26 in 10.0 mi North 6.9 mph - N/A   Overcast
10:15 AM 60.8 °F 42.8 °F 52% 30.26 in 10.0 mi North 8.1 mph - N/A   Overcast
10:35 AM 60.8 °F 42.8 °F 52% 30.26 in 10.0 mi North 4.6 mph - N/A   Overcast
10:55 AM 60.8 °F 42.8 °F 52% 30.27 in 10.0 mi NNE 4.6 mph - N/A   Scattered Clouds
11:15 AM 64.4 °F 42.8 °F 45% 30.26 in 10.0 mi Calm Calm - N/A   Clear
11:35 AM 66.2 °F 42.8 °F 43% 30.25 in 10.0 mi Calm Calm - N/A   Clear
11:55 AM 68.0 °F 42.8 °F 40% 30.24 in 10.0 mi NNW 4.6 mph - N/A   Clear
12:15 PM 68.0 °F 42.8 °F 40% 30.23 in 10.0 mi NW 3.5 mph - N/A   Clear
12:35 PM 71.6 °F 42.8 °F 35% 30.22 in 10.0 mi NNE 9.2 mph - N/A   Clear
12:55 PM 71.6 °F 42.8 °F 35% 30.21 in 10.0 mi North 6.9 mph - N/A   Clear
1:15 PM 71.6 °F 44.6 °F 38% 30.21 in 10.0 mi North 11.5 mph - N/A   Clear
1:35 PM 71.6 °F 44.6 °F 38% 30.20 in 10.0 mi NNE 5.8 mph - N/A   Clear
1:55 PM 71.6 °F 42.8 °F 35% 30.20 in 10.0 mi North 10.4 mph - N/A   Clear
2:15 PM 73.4 °F 42.8 °F 33% 30.19 in 10.0 mi North 12.7 mph 18.4 mph N/A   Clear
2:35 PM 73.4 °F 42.8 °F 33% 30.20 in 10.0 mi North 11.5 mph 16.1 mph N/A   Clear
2:55 PM 75.2 °F 42.8 °F 31% 30.19 in 10.0 mi North 10.4 mph 17.3 mph N/A   Clear
3:15 PM 75.2 °F 42.8 °F 31% 30.19 in 10.0 mi NNE 8.1 mph - N/A   Clear
3:35 PM 73.4 °F 42.8 °F 33% 30.19 in 10.0 mi North 12.7 mph 18.4 mph N/A   Clear
3:55 PM 73.4 °F 42.8 °F 33% 30.19 in 10.0 mi North 12.7 mph 17.3 mph N/A   Clear
4:15 PM 73.4 °F 42.8 °F 33% 30.20 in 10.0 mi NNE 11.5 mph - N/A   Clear
4:55 PM 71.6 °F 42.8 °F 35% 30.21 in 10.0 mi NNE 10.4 mph - N/A   Clear
5:15 PM 71.6 °F 42.8 °F 35% 30.22 in 10.0 mi NNE 6.9 mph - N/A   Clear
5:35 PM 69.8 °F 42.8 °F 38% 30.22 in 10.0 mi North 6.9 mph - N/A   Clear
5:55 PM 64.4 °F 42.8 °F 45% 30.23 in 9.0 mi North 4.6 mph - N/A   Clear
6:15 PM 62.6 °F 42.8 °F 48% 30.24 in 10.0 mi North 4.6 mph - N/A   Clear
6:35 PM 60.8 °F 41.0 °F 48% 30.25 in 10.0 mi North 5.8 mph - N/A   Clear
6:55 PM 60.8 °F 41.0 °F 48% 30.26 in 10.0 mi North 5.8 mph - N/A   Clear
7:15 PM 59.0 °F 41.0 °F 51% 30.27 in 10.0 mi Calm Calm - N/A   Clear
7:35 PM 59.0 °F 39.2 °F 48% 30.27 in 10.0 mi Calm Calm - N/A   Clear
7:55 PM 55.4 °F 39.2 °F 54% 30.28 in 10.0 mi NNW 3.5 mph - N/A   Clear
8:15 PM 57.2 °F 39.2 °F 51% 30.28 in 10.0 mi NNW 3.5 mph - N/A   Clear
8:35 PM 55.4 °F 39.2 °F 54% 30.29 in 10.0 mi NNW 4.6 mph - N/A   Clear
8:55 PM 53.6 °F 39.2 °F 58% 30.29 in 10.0 mi NW 4.6 mph - N/A   Clear
9:15 PM 53.6 °F 39.2 °F 58% 30.29 in 10.0 mi Calm Calm - N/A   Clear
9:35 PM 51.8 °F 37.4 °F 58% 30.29 in 10.0 mi Calm Calm - N/A   Clear
9:55 PM 51.8 °F 35.6 °F 54% 30.29 in 10.0 mi WNW 5.8 mph - N/A   Clear
10:15 PM 55.4 °F 35.6 °F 47% 30.29 in 10.0 mi NW 5.8 mph - N/A   Clear
10:35 PM 53.6 °F 35.6 °F 51% 30.30 in 10.0 mi NW 5.8 mph - N/A   Clear
10:55 PM 51.8 °F 33.8 °F 50% 30.30 in 10.0 mi NW 3.5 mph - N/A   Clear
11:15 PM 50.0 °F 35.6 °F 58% 30.30 in 10.0 mi Calm Calm - N/A   Clear
11:35 PM 46.4 °F 35.6 °F 66% 30.31 in 10.0 mi Calm Calm - N/A   Clear
11:55 PM 44.6 °F 35.6 °F 71% 30.31 in 10.0 mi Calm Calm - N/A   Clear